Meteo Giornale » Osservazioni meteo Francia » Lione-Satolas

ore: 05:30 - Osservazioni Meteo Lione-Satolas
Lat. 45° 44' N Lon. 5° 5' E Alt. 248 metri s.l.m.

sereno Europe/Paris

24 °C

Sereno

Temp. 24 Ore

24 °C

34 °C

Sud-Est

16.7 Km/h

Dew point 14 °C

Umidità 53 %

Visibilità  10 Km

Il sole sorge alle ore 05:49

Il sole tramonta alle ore 21:35

Data e Ora Cielo e Fenomeni T °C DP °C Um. % Pres. hPa Vis. km Vento km/h
Oggi h: 05:30 sereno Sereno 24 14 53 1021 10 SE 16.7
Oggi h: 05:00 sereno Sereno 24 14 53 1021 10 SE 16.7
Oggi h: 04:30 sereno Sereno 26 14 47 1021 10 S/SE 16.7
Oggi h: 03:30 sereno Sereno 26 14 47 1021 10 S/SE 16.7
Oggi h: 03:00 sereno Sereno 27 14 44 1021 10 S 18.5
Oggi h: 02:30 sereno Sereno 27 15 47 1021 10 S 20.3
Oggi h: 02:00 sereno Sereno 27 15 47 1021 10 S/SE 20.3
Oggi h: 01:30 sereno Sereno 28 15 45 1021 10 S/SE 18.5
Oggi h: 01:00 sereno Sereno 28 15 45 1021 10 S/SE 16.7
Oggi h: 00:30 sereno Sereno 28 15 45 1021 10 S/SE 18.5
Oggi h: 00:00 sereno Sereno 27 16 50 1021 10 S/SE 14.8
Ieri h: 23:30 sereno Sereno 27 18 57 1021 10 SE 14.8
Ieri h: 23:00 sereno Sereno 28 18 54 1020 10 SE 14.8
Ieri h: 22:30 sereno Sereno 28 19 58 1020 10 S/SE 16.7
Ieri h: 22:00 sereno Sereno 29 20 58 1020 10 SE 16.7
Ieri h: 21:30 sereno Sereno 29 20 58 1019 10 SE 13
Ieri h: 21:00 sereno Sereno 30 20 55 1019 10 E/SE 9.3
Ieri h: 20:30 sereno Sereno 31 19 48 1019 10 E/SE 11.1
Ieri h: 20:00 sereno Sereno 33 14 31 1019 10 S/SE 9.3
Ieri h: 19:30 sereno Sereno 33 14 31 1019 10 N 5.5
Ieri h: 19:00 sereno Sereno 33 15 33 1019 10 S/SO 11.1
Ieri h: 18:30 sereno Sereno 33 16 36 1019 10 S/SO 11.1
Ieri h: 18:00 sereno Sereno 33 17 38 1019 10 S 14.8
Ieri h: 17:30 sereno Sereno 33 16 36 1019 10 S 14.8
Ieri h: 17:00 sereno Sereno 33 15 33 1019 10 S 14.8
Ieri h: 16:30 sereno Sereno 34 15 32 1018 10 S 18.5
Ieri h: 16:00 sereno Sereno 34 15 32 1018 10 S 18.5
Ieri h: 15:30 sereno Sereno 34 15 32 1018 10 S 18.5
Ieri h: 15:00 sereno Sereno 33 15 33 1019 10 S/SE 13
Ieri h: 14:30 sereno Sereno 32 15 35 1019 10 S 16.7
Ieri h: 14:00 sereno Sereno 31 15 37 1019 10 S 16.7
Ieri h: 13:30 sereno Sereno 31 15 37 1019 10 S/SE 16.7
Ieri h: 13:00 sereno Sereno 31 15 37 1019 10 S/SE 18.5
Ieri h: 12:30 sereno Sereno 30 14 37 1019 10 S/SE 20.3
Ieri h: 12:00 sereno Sereno 30 14 37 1019 10 S/SE 24
Ieri h: 11:30 sereno Sereno 29 14 39 1019 10 S/SE 22.2
Ieri h: 11:00 sereno Sereno 29 13 37 1019 10 S 22.2
Ieri h: 10:30 sereno Sereno 28 13 39 1019 10 S 22.2
Ieri h: 10:00 sereno Sereno 28 13 39 1019 10 S/SE 20.3
Ieri h: 09:30 sereno Sereno 27 13 42 1019 10 S/SE 18.5
Ieri h: 09:00 sereno Sereno 26 13 44 1019 10 S/SE 22.2
Ieri h: 08:30 sereno Sereno 25 13 47 1019 10 S/SE 22.2
Ieri h: 08:00 sereno Sereno 24 14 53 1019 10 SE 18.5